Date String (YYYY-MM-DD hh:mm:ss) UTC,Instrument flags,absolute air pressure of the measurement (hPa),sample flow rate (lpm),inlet stack bypass flow (lpm),air temperature of the measurement (°C),ambient temperature measured by the external sensor (°C),aerosol sample conditioner tube jacket temperature (°C),OPC LED temperature (°C),internal box temperature (°C),relative humidity of the measurement (%),span deviation,mass concentration of particles derived from Lorenz-Mie calculation of OPC scattering (μg/m³),mass concentration of particles derived from Lorenz-Mie calculation of OPC scattering (μg/m³),mass concentration of particles derived from Lorenz-Mie calculation of OPC scattering (μg/m³)
DateTimeUTC,F1_M11,P_M11,Q1_M11,Q2_M11,T1_M11,T2_M11,T3_M11,T4_M11,T5_M11,U1_M11,ZSPAN_M11,X0_M11,X2_M11,X1_M11
2023-09-07 01:00:00,SystemResetWarning,0831.2,5.00,000.00,028.0,027.0,000.0,036.1,029.8,22.8,0001.3,0018.95,0006.18,0005.04
2023-09-07 01:01:00,SystemResetWarning,0831.2,4.99,000.00,028.1,026.9,000.0,036.2,029.8,22.7,0001.5,0018.44,0006.16,0005.02
2023-09-07 01:02:00,SystemResetWarning,0831.2,4.99,000.00,028.0,025.4,000.0,036.1,029.4,22.7,0001.6,0017.26,0006.11,0005.02
2023-09-07 01:03:00,SystemResetWarning,0831.1,5.01,000.00,027.9,024.3,000.0,036.1,029.1,23.2,0001.6,0017.21,0006.12,0005.02
2023-09-07 01:04:00,SystemResetWarning,0831.1,5.01,000.00,027.8,024.3,000.0,036.1,029.1,23.4,0002.0,0017.30,0006.17,0005.03
2023-09-07 01:05:00,SystemResetWarning,0831.1,5.00,000.00,027.8,024.7,000.0,036.1,029.1,23.5,0002.0,0016.66,0006.23,0005.04
2023-09-07 01:06:00,SystemResetWarning,0831.2,5.01,000.00,027.8,025.1,000.0,036.1,029.3,23.1,0001.9,0016.71,0006.28,0005.05
2023-09-07 01:07:00,SystemResetWarning,0831.2,5.00,000.00,027.8,025.5,000.0,036.1,029.4,23.0,0002.1,0016.97,0006.28,0005.06
2023-09-07 01:08:00,SystemResetWarning,0831.2,4.99,000.00,027.8,025.9,000.0,036.1,029.5,23.2,0002.1,0016.73,0006.28,0005.07
2023-09-07 01:09:00,SystemResetWarning,0831.2,5.00,000.00,027.9,026.3,000.0,036.1,029.6,23.1,0002.0,0016.69,0006.28,0005.09
2023-09-07 01:10:00,SystemResetWarning,0831.2,5.00,000.00,028.0,026.6,000.0,036.1,029.7,22.8,0002.2,0017.16,0006.28,0005.10
2023-09-07 01:11:00,SystemResetWarning,0831.2,5.00,000.00,028.0,026.9,000.0,036.2,029.8,22.4,0002.3,0018.02,0006.32,0005.11
2023-09-07 01:12:00,SystemResetWarning,0831.2,4.99,000.00,028.1,026.9,000.0,036.2,029.9,22.1,0002.5,0019.39,0006.32,0005.13
2023-09-07 01:13:00,SystemResetWarning,0831.2,4.98,000.00,028.1,025.6,000.0,036.2,029.5,21.9,0002.6,0019.85,0006.35,0005.15
2023-09-07 01:14:00,SystemResetWarning,0831.1,5.02,000.00,027.9,024.3,000.0,036.1,029.1,22.0,0002.7,0019.80,0006.35,0005.17
2023-09-07 01:15:00,SystemResetWarning,0831.1,5.01,000.00,027.8,024.1,000.0,036.1,029.1,21.9,0002.4,0020.56,0006.30,0005.16
2023-09-07 01:16:00,SystemResetWarning,0831.2,4.98,000.00,027.8,024.4,000.0,036.1,029.1,21.9,0002.1,0021.12,0006.29,0005.17
2023-09-07 01:17:00,SystemResetWarning,0831.2,5.01,000.00,027.7,024.9,000.0,036.1,029.2,21.9,0002.1,0021.40,0006.27,0005.17
2023-09-07 01:18:00,SystemResetWarning,0831.2,5.01,000.00,027.8,025.3,000.0,036.1,029.3,21.7,0002.2,0021.12,0006.24,0005.15
2023-09-07 01:19:00,SystemResetWarning,0831.2,5.00,000.00,027.8,025.7,000.0,036.1,029.5,21.5,0002.0,0020.62,0006.22,0005.16
2023-09-07 01:20:00,SystemResetWarning,0831.2,5.00,000.00,027.9,026.1,000.0,036.1,029.6,21.4,0002.0,0020.34,0006.19,0005.15
2023-09-07 01:21:00,SystemResetWarning,0831.2,5.01,000.00,027.9,026.4,000.0,036.1,029.7,21.2,0001.9,0019.46,0006.23,0005.14
2023-09-07 01:22:00,SystemResetWarning,0831.2,4.99,000.00,028.0,026.7,000.0,036.2,029.8,21.1,0002.0,0019.25,0006.19,0005.13
2023-09-07 01:23:00,SystemResetWarning,0831.3,5.00,000.00,028.1,027.0,000.0,036.2,029.8,21.2,0001.6,0018.21,0006.21,0005.12
2023-09-07 01:24:00,SystemResetWarning,0831.2,5.00,000.00,028.1,027.1,000.0,036.2,029.9,21.3,0001.7,0018.53,0006.21,0005.11
2023-09-07 01:25:00,SystemResetWarning,0831.3,4.98,000.00,028.1,026.2,000.0,036.2,029.6,21.4,0001.7,0018.43,0006.19,0005.08
2023-09-07 01:26:00,SystemResetWarning,0831.2,5.01,000.00,028.0,024.5,000.0,036.2,029.2,21.5,0002.0,0018.35,0006.24,0005.08
2023-09-07 01:27:00,SystemResetWarning,0831.2,5.02,000.00,027.9,024.0,000.0,036.1,029.1,21.8,0002.2,0018.37,0006.25,0005.10
2023-09-07 01:28:00,SystemResetWarning,0831.2,5.00,000.00,027.8,024.3,000.0,036.1,029.1,21.9,0002.3,0018.42,0006.25,0005.11
2023-09-07 01:29:00,SystemResetWarning,0831.2,4.99,000.00,027.7,024.7,000.0,036.1,029.2,21.8,0002.0,0017.50,0006.27,0005.13
2023-09-07 01:30:00,SystemResetWarning,0831.3,5.00,000.00,027.8,025.1,000.0,036.1,029.3,21.7,0002.3,0018.57,0006.31,0005.14
2023-09-07 01:31:00,SystemResetWarning,0831.2,5.01,000.00,027.8,025.6,000.0,036.1,029.4,21.4,0002.5,0019.50,0006.35,0005.15
2023-09-07 01:32:00,SystemResetWarning,0831.2,5.01,000.00,027.9,026.0,000.0,036.1,029.5,21.3,0002.4,0020.77,0006.36,0005.15
2023-09-07 01:33:00,SystemResetWarning,0831.2,4.99,000.00,027.9,026.3,000.0,036.1,029.6,21.2,0002.2,0020.41,0006.38,0005.15
2023-09-07 01:34:00,SystemResetWarning,0831.2,5.00,000.00,028.0,026.6,000.0,036.2,029.7,21.0,0002.4,0021.43,0006.37,0005.14
2023-09-07 01:35:00,SystemResetWarning,0831.2,5.01,000.00,028.0,026.8,000.0,036.2,029.8,21.3,0002.1,0021.61,0006.44,0005.15
2023-09-07 01:36:00,SystemResetWarning,0831.3,5.01,000.00,028.1,027.0,000.0,036.2,029.9,21.4,0002.2,0021.16,0006.46,0005.17
2023-09-07 01:37:00,SystemResetWarning,0831.3,4.99,000.00,028.1,026.5,000.0,036.2,029.7,21.2,0002.1,0020.39,0006.49,0005.18
2023-09-07 01:38:00,SystemResetWarning,0831.2,4.99,000.00,028.0,024.7,000.0,036.2,029.2,21.1,0002.1,0019.96,0006.49,0005.16
2023-09-07 01:39:00,SystemResetWarning,0831.2,5.02,000.00,027.9,023.9,000.0,036.1,029.0,21.5,0001.9,0019.33,0006.52,0005.15
2023-09-07 01:40:00,SystemResetWarning,0831.3,5.00,000.00,027.8,024.0,000.0,036.1,029.0,21.4,0002.1,0019.59,0006.51,0005.15
2023-09-07 01:41:00,SystemResetWarning,0831.3,5.00,000.00,027.7,024.4,000.0,036.1,029.0,22.0,0002.3,0018.90,0006.54,0005.14
2023-09-07 01:42:00,SystemResetWarning,0831.3,5.01,000.00,027.7,024.9,000.0,036.1,029.2,21.9,0002.4,0018.42,0006.60,0005.13
2023-09-07 01:43:00,SystemResetWarning,0831.3,5.00,000.00,027.7,025.3,000.0,036.1,029.3,22.1,0002.4,0017.32,0006.62,0005.15
2023-09-07 01:44:00,SystemResetWarning,0831.3,5.00,000.00,027.8,025.8,000.0,036.1,029.4,22.3,0002.5,0018.61,0006.61,0005.15
2023-09-07 01:45:00,SystemResetWarning,0831.3,5.00,000.00,027.8,026.1,000.0,036.1,029.5,22.6,0002.5,0018.52,0006.60,0005.16
2023-09-07 01:46:00,SystemResetWarning,0831.3,5.00,000.00,027.9,026.4,000.0,036.1,029.6,22.9,0002.8,0017.39,0006.52,0005.14
2023-09-07 01:47:00,SystemResetWarning,0831.3,5.00,000.00,027.9,026.7,000.0,036.2,029.7,22.9,0002.7,0017.01,0006.48,0005.14
2023-09-07 01:48:00,SystemResetWarning,0831.3,5.00,000.00,028.0,026.9,000.0,036.2,029.8,22.8,0002.8,0017.44,0006.45,0005.14
2023-09-07 01:49:00,SystemResetWarning,0831.3,5.00,000.00,028.1,027.1,000.0,036.2,029.8,22.8,0002.7,0017.00,0006.40,0005.16
2023-09-07 01:50:00,SystemResetWarning,0831.3,4.99,000.00,028.1,026.9,000.0,036.2,029.8,22.7,0002.8,0017.40,0006.40,0005.17
2023-09-07 01:51:00,SystemResetWarning,0831.3,5.00,000.00,028.0,025.3,000.0,036.2,029.3,22.7,0002.8,0017.02,0006.40,0005.18
2023-09-07 01:52:00,SystemResetWarning,0831.3,5.01,000.00,027.9,023.9,000.0,036.1,029.0,22.8,0002.5,0017.31,0006.39,0005.19
2023-09-07 01:53:00,SystemResetWarning,0831.3,5.01,000.00,027.8,023.9,000.0,036.1,028.9,23.0,0002.3,0018.60,0006.35,0005.20
2023-09-07 01:54:00,SystemResetWarning,0831.3,4.99,000.00,027.7,024.2,000.0,036.1,028.9,23.0,0002.3,0018.46,0006.30,0005.20
2023-09-07 01:55:00,SystemResetWarning,0831.3,5.00,000.00,027.7,024.7,000.0,036.1,029.1,23.1,0002.4,0017.50,0006.27,0005.20
2023-09-07 01:56:00,SystemResetWarning,0831.3,5.00,000.00,027.7,025.1,000.0,036.1,029.2,22.9,0002.4,0016.77,0006.27,0005.21
2023-09-07 01:57:00,SystemResetWarning,0831.4,5.01,000.00,027.7,025.6,000.0,036.1,029.3,22.9,0002.6,0016.67,0006.26,0005.23
2023-09-07 01:58:00,SystemResetWarning,0831.5,5.00,000.00,027.8,025.9,000.0,036.1,029.4,23.0,0002.7,0016.54,0006.23,0005.23
2023-09-07 01:59:00,SystemResetWarning,0831.4,5.00,000.00,027.8,026.3,000.0,036.1,029.5,22.7,0002.4,0016.30,0006.23,0005.24
